Flag for Germany Weather past 2 weeks in Güstrow, Mecklenburg-Western Pomerania, Germany

46 °F


Feels Like: 44 °F
Forecast: 37 / 48 °F
Wind: 5 mph from Southeast

Location: Laage

Current Time: Oct 9, 2015 at 2:32:07 AM

Latest Report: Oct 9, 2015 at 1:20 AM

Visibility: N/A

Pressure: 30.18 "Hg

Humidity: 93%

Dew point: 45 °F

Location of GüstrowLocation

Historic Weather in Güstrow — Graph


Güstrow temperature yesterday

Maximum temperature yesterday: 46 °F (at 12:20 AM)
Minimum temperature yesterday: 43 °F (at 5:20 AM)
Average temperature yesterday: 45 °F

Past Weeks' High & Low Weather Summary

High64 °F (Oct 4, 1:20 PM)100% (Sep 24, 2:20 AM)30.72 "Hg (Sep 24, 2:20 AM)
Low34 °F (Oct 3, 7:20 AM)45% (Sep 28, 2:20 PM)29.80 "Hg (Oct 6, 2:20 PM)
Average51 °F86%30.23 "Hg
* Reported Sep 24 1:20 AM — Oct 9 1:20 AM, Güstrow, Weather by CustomWeather, © 2015

Note: Actual official high and low records may vary slightly from our data, if they occured in-between our weather recording intervals... More about our weather records


Güstrow weather history for previous 24 hours

Time TempWeatherWind HumidityBarometerVisibility
1:20 AM
Fri, Oct 9
46 °FOvercast.5 mph93%30.18 "HgN/A
12:20 AM46 °FOvercast.5 mph93%30.18 "HgN/A
10:20 PM
Thu, Oct 8
46 °FLight rain. Passing clouds.2 mph93%30.18 "HgN/A
9:20 PM46 °FPassing clouds.5 mph87%30.15 "HgN/A
8:57 PM46 °FPartly cloudy.6 mph93%30.15 "HgN/A
8:20 PM45 °FPassing clouds.6 mph93%30.15 "Hg5 mi
7:20 PM45 °FLight rain. More clouds than sun.8 mph93%30.15 "Hg4 mi
6:20 PM45 °FDrizzle. Cloudy.9 mph93%30.15 "Hg4 mi
5:20 PM45 °FLight rain. Partly sunny.8 mph93%30.12 "Hg6 mi
4:20 PM45 °FFog.10 mph100%30.12 "Hg3 mi
4:02 PM45 °FDrizzle. Fog.9 mph100%30.12 "Hg2 mi
3:20 PM45 °FDrizzle. Fog.7 mph100%30.12 "Hg1 mi
2:20 PM45 °FPartly sunny.9 mph93%30.12 "Hg6 mi
1:20 PM45 °FPartly sunny.8 mph93%30.09 "HgN/A
12:20 PM45 °FPartly sunny.7 mph93%30.09 "HgN/A
11:20 AM45 °FMostly cloudy.8 mph93%30.09 "HgN/A
10:20 AM45 °FMostly cloudy.8 mph93%30.09 "HgN/A
9:20 AM45 °FMostly cloudy.8 mph93%30.07 "HgN/A
8:46 AM45 °FDrizzle. Partly sunny.8 mph93%30.07 "Hg4 mi
8:20 AM43 °FPassing clouds.8 mph100%30.07 "Hg4 mi
8:01 AM43 °FPassing clouds.8 mph100%30.04 "Hg3 mi
7:20 AM43 °FPassing clouds.8 mph100%30.04 "Hg2 mi
6:20 AM45 °FLight rain. Overcast.10 mph87%30.04 "HgN/A
5:20 AM43 °FPassing clouds.10 mph93%30.04 "HgN/A
4:20 AM45 °FPassing clouds.10 mph93%30.04 "HgN/A
3:20 AM45 °FPassing clouds.12 mph93%30.04 "HgN/A
2:20 AM46 °FLight rain. Passing clouds.12 mph93%30.04 "HgN/A
Weather by CustomWeather, © 2015

See weather overviewHow to use our weather pages